Tracking 23731 objects as of 26-Sep-2021
HD Live streaming from Space Station
objects crossing your sky now

STARLINK-2240

Track STARLINK-2240 now!
10-day predictions
STARLINK-2240 is classified as:


NORAD ID: 48585
Int'l Code: 2021-041AJ
Perigee: 553.4 km
Apogee: 555.3 km
Inclination: 53.1 °
Period: 95.6 minutes
Semi major axis: 6925 km
RCS: Unknown
Launch date: May 15, 2021
Source: United States (US)
Launch site: AIR FORCE EASTERN TEST RANGE (AFETR)
aabbcc
Your satellite tracking list
Your tracking list is empty




NASA's NSSDC Master Catalog

Two Line Element Set (TLE):
1 48585U 21041AJ  21268.65144909  .00000124  00000-0  27211-4 0  9999
2 48585  53.0548 241.1828 0001365  75.5036 284.6104 15.06399917 19975
Source of the keplerian elements: AFSPC